Location: Unspecified
(0.0000°N, 0.0000°E)
Time: 05:30:23
(UTC+00:00)

Envisat - Pass Details

Date: 09 August 2020
Orbit: 764 x 766 km, 98.1° (Epoch: 13 August)

Event Time Altitude Azimuth Distance (km) Brightness Sun altitude
Rises 18:38:06 0° 194° (SSW) 3,230 6.2 -7.9°
Reaches altitude 10° 18:40:56 10° 210° (SSW) 2,301 5.7 -8.5°
Maximum altitude 18:44:37 21° 257° (WSW) 1,685 5.7 -9.4°
Drops below altitude 10° 18:48:19 10° 305° (NW) 2,294 6.8 -10.3°
Sets 18:51:10 0° 321° (NW) 3,216 7.2 -11.0°
